[[{"header":{"parameterUnit":"m.s-1","parameterCategory":1,"la1":30.2991,"la2":30.254,"lo1":-89.0895,"lo2":-89.0444,"dy":0.0017,"dx":0.0017,"nx":28,"ny":28,"refTime":"2024-12-18T03:00:00:Z","depth":0,"parameterNumber":2,"parameterNumberName":"U-component_of_WINDS"},"data":[0,0,0,0,0,0,0,0,0,0,0,0,0,0,0,0,0,0,0,0,0,0,0,0,0,0,0,0,0,0,0,0,0,0,0,0,0,0,0,0,0,0,0,0,0,0,0,0,0,0,0,0,0,0,0,0,0,0,-1.1742,-1.1742,0,-1.1713,-1.1712,-1.1712,-1.1648,-1.1647,-1.1645,-1.1644,-1.1615,-1.1615,-1.1616,0,0,0,0,0,0,0,0,0,0,0,0,0,-1.1745,-1.1746,-1.1742,-1.1742,-1.1742,-1.1713,-1.1712,-1.1712,-1.1648,-1.1647,-1.1645,-1.1644,-1.1615,-1.1615,-1.1616,0,0,0,0,0,0,0,0,0,0,0,0,0,-1.1733,-1.1746,-1.1742,-1.1706,-1.1703,-1.1713,-1.1712,-1.1712,-1.1648,-1.1647,-1.1645,-1.1643,-1.1615,-1.1615,-1.1616,-1.1659,0,0,-1.1618,-1.1618,0,0,0,0,0,0,0,0,-1.1734,-1.1733,-1.1712,-1.1709,-1.1705,-1.1682,-1.1703,-1.1694,-1.1649,-1.1669,-1.1644,-1.1642,-1.1639,-1.1637,-1.1636,-1.1658,-1.1656,-1.1618,-1.1618,-1.1619,-1.1619,0,0,0,0,0,0,0,-1.1734,-1.1734,-1.1731,-1.1712,-1.1707,-1.1692,-1.1688,-1.1701,-1.1665,-1.1667,-1.1662,-1.166,-1.1636,-1.1636,-1.1635,-1.1656,-1.1618,-1.1618,-1.1619,-1.1619,-1.1712,-1.1714,0,0,0,0,0,0,-1.174,-1.1735,-1.1731,-1.173,-1.1715,-1.1694,-1.1689,-1.1691,-1.1665,-1.1659,-1.1662,-1.1657,-1.1635,-1.1634,-1.1634,-1.1683,-1.1618,-1.1619,-1.1619,-1.171,-1.1713,-1.1715,0,0,0,0,0,0,-1.1741,-1.1741,-1.1733,-1.1731,-1.1729,-1.1696,-1.1699,-1.1692,-1.1691,-1.1661,-1.1654,-1.1667,-1.1634,-1.1633,-1.1653,-1.1681,-1.1619,-1.162,-1.1708,-1.1711,-1.1714,-1.1782,0,0,0,0,0,0,-1.1741,-1.1741,-1.1757,-1.1732,-1.1729,-1.1753,-1.17,-1.1693,-1.1692,-1.1686,-1.1664,-1.1659,-1.1632,-1.1653,-1.1654,-1.1681,-1.1621,-1.1705,-1.1709,-1.1713,-1.1777,-1.1787,-1.1795,0,0,0,0,0,-1.1741,-1.1777,-1.1758,-1.1758,-1.1748,-1.1754,-1.1753,-1.1721,-1.1694,-1.171,-1.1691,-1.1659,-1.1678,-1.1655,-1.1656,-1.1684,-1.1703,-1.1708,-1.1713,-1.1773,-1.1785,-1.1795,0,0,0,0,0,0,-1.1806,-1.1773,-1.1751,-1.178,-1.177,-1.1743,-1.1762,-1.1735,-1.1733,-1.1727,-1.1689,-1.1684,-1.171,-1.1699,-1.1674,-1.1725,-1.1685,-1.1691,-1.1731,-1.1742,-1.1751,-1.1753,-1.1621,0,0,0,0,0,-1.1824,-1.1831,-1.1802,-1.183,-1.1827,-1.1796,-1.1797,-1.1774,-1.1762,-1.1758,-1.174,-1.1731,-1.1734,-1.1738,-1.1739,-1.1775,-1.177,-1.1794,-1.1804,-1.1811,-1.1816,-1.1835,-1.1846,-1.173,-1.173,-1.173,0,0,-1.186,-1.1843,-1.185,-1.1843,-1.1833,-1.1842,-1.1792,-1.1804,-1.1811,-1.176,-1.1778,-1.1765,-1.1752,-1.1781,-1.1792,-1.1772,-1.1847,-1.1817,-1.1824,-1.1824,-1.1841,-1.1852,-1.1862,-1.1734,-1.1733,-1.1732,0,0,-1.1931,-1.1919,-1.1941,-1.1932,-1.1918,-1.1897,-1.1902,-1.188,-1.1869,-1.1887,-1.1849,-1.1857,-1.1864,-1.1856,-1.1853,-1.1923,-1.1894,-1.1925,-1.1973,-1.1992,-1.2001,-1.2009,-1.2034,-1.2044,-1.193,-1.193,-1.193,0,-1.1979,-1.199,-1.1956,-1.1971,-1.1969,-1.1923,-1.1946,-1.1939,-1.1926,-1.1926,-1.1904,-1.1912,-1.19,-1.1926,-1.1944,-1.1943,-1.1948,-1.1927,-1.2002,-1.201,-1.2017,-1.204,-1.205,-1.1934,-1.1933,-1.1933,-1.1933,0,-1.205,-1.2059,-1.2079,-1.2067,-1.2067,-1.2086,-1.2055,-1.206,-1.2037,-1.2019,-1.2038,-1.2023,-1.2021,-1.2025,-1.2003,-1.2049,-1.2037,-1.2009,-1.1969,-1.2032,-1.2054,-1.2063,-1.1939,-1.1938,-1.1937,-1.1936,0,0,-1.216,-1.213,-1.2138,-1.2132,-1.2113,-1.212,-1.2137,-1.2135,-1.214,-1.2133,-1.2146,-1.2154,-1.2128,-1.2125,-1.2102,-1.2118,-1.2176,-1.2088,-1.2087,-1.2105,-1.2226,-1.2247,-1.2258,-1.2156,-1.2158,-1.2159,-1.2227,0,-1.2227,-1.2253,-1.2224,-1.2257,-1.2265,-1.2223,-1.2238,-1.2228,-1.2212,-1.2217,-1.22,-1.2206,-1.2171,-1.2169,-1.2184,-1.2166,-1.2199,-1.216,-1.2169,-1.217,-1.2174,-1.227,-1.2292,-1.2357,-1.2236,-1.2237,-1.2238,0,-1.2308,-1.2304,-1.2338,-1.2318,-1.2321,-1.2334,-1.2331,-1.2336,-1.2325,-1.2312,-1.2309,-1.2281,-1.2297,-1.2259,-1.2281,-1.2255,-1.2257,-1.2249,-1.2251,-1.225,-1.2208,-1.2272,-1.2376,-1.2386,-1.2251,-1.225,-1.2249,0,-1.2385,-1.2389,-1.241,-1.2407,-1.2384,-1.2395,-1.2386,-1.2372,-1.2373,-1.237,-1.2371,-1.237,-1.237,-1.237,-1.2343,-1.2317,-1.2369,-1.2328,-1.2359,-1.236,-1.2371,-1.2371,-1.2478,-1.2373,-1.2373,-1.2373,-1.2373,0,-1.2462,-1.2485,-1.2445,-1.2458,-1.2482,-1.2448,-1.2474,-1.246,-1.2449,-1.246,-1.2423,-1.2434,-1.2397,-1.2404,-1.2383,-1.2405,-1.2405,-1.2396,-1.239,-1.2399,-1.24,-1.24,-1.2394,-1.2375,-1.2375,-1.2374,-1.2374,0,-1.2553,-1.2527,-1.2547,-1.2524,-1.2518,-1.2537,-1.2518,-1.2529,-1.2511,-1.2525,-1.2526,-1.2498,-1.2504,-1.2477,-1.2479,-1.2465,-1.2498,-1.2484,-1.2502,-1.2497,-1.253,-1.2528,-1.2641,-1.2654,-1.2541,-1.2542,-1.2543,0,-1.2604,-1.262,-1.2599,-1.2603,-1.2596,-1.2603,-1.2604,-1.2572,-1.2575,-1.2564,-1.2577,-1.258,-1.2581,-1.2593,-1.2573,-1.2575,-1.2561,-1.2601,-1.2561,-1.257,-1.2562,-1.2562,-1.2563,-1.2609,-1.261,-1.2612,-1.2613,0,-1.2697,-1.2684,-1.2686,-1.2685,-1.2687,-1.2685,-1.268,-1.2685,-1.2651,-1.2656,-1.2662,-1.2663,-1.2665,-1.2669,-1.2666,-1.2658,-1.263,-1.2625,-1.2633,-1.2642,-1.2651,-1.2647,-1.2524,-1.2623,-1.2622,-1.2621,-1.262,-1.262,-1.277,-1.2782,-1.277,-1.2774,-1.2767,-1.2764,-1.2773,-1.2757,-1.2761,-1.276,-1.2741,-1.2751,-1.2741,-1.2735,-1.2729,-1.2737,-1.2718,-1.2729,-1.2731,-1.2734,-1.274,-1.265,-1.2736,-1.2736,-1.2735,-1.2735,-1.2735,0,-1.2861,-1.2851,-1.2856,-1.285,-1.2854,-1.2827,-1.2821,-1.2826,-1.2835,-1.2827,-1.2829,-1.2837,-1.2841,-1.2822,-1.2824,-1.2834,-1.2821,-1.2835,-1.2834,-1.2833,-1.2757,-1.275,-1.2845,-1.2845,-1.2845,-1.2845,-1.2845,-1.2845,-1.291,-1.293,-1.2916,-1.2933,-1.2923,-1.2932,-1.2931,-1.2927,-1.2921,-1.2931,-1.2934,-1.2922,-1.291,-1.2911,-1.2914,-1.2908,-1.291,-1.2929,-1.2919,-1.2849,-1.2838,-1.2828,-1.2821,-1.293,-1.293,-1.2995,-1.2995,-1.2996]},{"header":{"parameterUnit":"m.s-1","parameterCategory":1,"la1":30.2991,"la2":30.254,"lo1":-89.0895,"lo2":-89.0444,"dy":0.0017,"dx":0.0017,"nx":28,"ny":28,"refTime":"2024-12-18T03:00:00:Z","depth":0,"parameterNumber":3,"parameterNumberName":"V-component_of_WINDS"},"data":[0,0,0,0,0,0,0,0,0,0,0,0,0,0,0,0,0,0,0,0,0,0,0,0,0,0,0,0,0,0,0,0,0,0,0,0,0,0,0,0,0,0,0,0,0,0,0,0,0,0,0,0,0,0,0,0,0,0,-0.1101,-0.1102,0,-0.1154,-0.1155,-0.1156,-0.116,-0.1159,-0.1159,-0.1158,-0.1216,-0.1218,-0.122,0,0,0,0,0,0,0,0,0,0,0,0,0,-0.1005,-0.1006,-0.1101,-0.1102,-0.1102,-0.1154,-0.1155,-0.1156,-0.116,-0.1159,-0.1159,-0.1158,-0.1215,-0.1218,-0.122,0,0,0,0,0,0,0,0,0,0,0,0,0,-0.1051,-0.1007,-0.1101,-0.1111,-0.1112,-0.1154,-0.1155,-0.1156,-0.116,-0.1159,-0.1158,-0.1158,-0.1214,-0.1217,-0.122,-0.1257,0,0,-0.123,-0.1231,0,0,0,0,0,0,0,0,-0.1049,-0.1055,-0.1109,-0.111,-0.1112,-0.115,-0.1142,-0.119,-0.116,-0.1142,-0.1158,-0.1157,-0.1195,-0.1199,-0.1211,-0.126,-0.1263,-0.123,-0.1232,-0.1233,-0.1234,0,0,0,0,0,0,0,-0.1045,-0.1052,-0.1122,-0.1109,-0.1111,-0.1113,-0.1119,-0.1151,-0.1173,-0.1144,-0.1144,-0.115,-0.1195,-0.1208,-0.1213,-0.1263,-0.123,-0.1233,-0.1235,-0.1236,-0.1345,-0.1346,0,0,0,0,0,0,-0.104,-0.105,-0.1121,-0.1124,-0.1077,-0.1115,-0.1122,-0.1138,-0.1172,-0.1177,-0.1151,-0.115,-0.1203,-0.1209,-0.1215,-0.126,-0.1233,-0.1236,-0.1238,-0.1344,-0.1345,-0.1346,0,0,0,0,0,0,-0.1038,-0.1046,-0.1118,-0.1087,-0.1096,-0.1118,-0.1137,-0.114,-0.1153,-0.1178,-0.1182,-0.116,-0.1203,-0.121,-0.1246,-0.1262,-0.1238,-0.1241,-0.1343,-0.1344,-0.1345,-0.1351,0,0,0,0,0,0,-0.1035,-0.1045,-0.1059,-0.1087,-0.1098,-0.1149,-0.1138,-0.1142,-0.1158,-0.1157,-0.1188,-0.1192,-0.1203,-0.1242,-0.125,-0.1266,-0.1243,-0.1341,-0.1343,-0.1345,-0.135,-0.1353,-0.1356,0,0,0,0,0,-0.1032,-0.106,-0.106,-0.1068,-0.1116,-0.1149,-0.1156,-0.1167,-0.1159,-0.1174,-0.1189,-0.1191,-0.1259,-0.1245,-0.1254,-0.1272,-0.134,-0.1343,-0.1345,-0.1349,-0.1352,-0.1355,0,0,0,0,0,0,-0.1034,-0.1063,-0.1064,-0.1102,-0.1123,-0.115,-0.1169,-0.1171,-0.1195,-0.1194,-0.1208,-0.1215,-0.125,-0.1265,-0.1249,-0.1309,-0.1299,-0.1303,-0.1299,-0.1303,-0.1305,-0.1301,-0.1246,0,0,0,0,0,-0.1039,-0.1063,-0.1088,-0.1119,-0.1129,-0.1147,-0.1162,-0.1169,-0.1192,-0.1201,-0.122,-0.1243,-0.1269,-0.1287,-0.1312,-0.1352,-0.1358,-0.1368,-0.1371,-0.1373,-0.1377,-0.1399,-0.1403,-0.1354,-0.1354,-0.1353,0,0,-0.105,-0.1068,-0.1083,-0.112,-0.1137,-0.1162,-0.1155,-0.1182,-0.1201,-0.1206,-0.1241,-0.1255,-0.1281,-0.1319,-0.1337,-0.1332,-0.1392,-0.1376,-0.1378,-0.138,-0.1401,-0.1406,-0.141,-0.1355,-0.1355,-0.1355,0,0,-0.1082,-0.1098,-0.1126,-0.1143,-0.1168,-0.118,-0.1186,-0.1213,-0.1222,-0.1257,-0.1261,-0.1284,-0.133,-0.1348,-0.1364,-0.1402,-0.1404,-0.141,-0.1425,-0.1446,-0.145,-0.1453,-0.1467,-0.1472,-0.1413,-0.1413,-0.1413,0,-0.1092,-0.113,-0.114,-0.1167,-0.1183,-0.1186,-0.1215,-0.1231,-0.1264,-0.1275,-0.1269,-0.1326,-0.1344,-0.1386,-0.1395,-0.1408,-0.1416,-0.1407,-0.1448,-0.1452,-0.1455,-0.1469,-0.1474,-0.1414,-0.1414,-0.1413,-0.1413,0,-0.1141,-0.1167,-0.1186,-0.1217,-0.1235,-0.1263,-0.1277,-0.1294,-0.1299,-0.1312,-0.1347,-0.1369,-0.1399,-0.1409,-0.1415,-0.1452,-0.1448,-0.1445,-0.1435,-0.146,-0.1473,-0.1478,-0.1414,-0.1414,-0.1414,-0.1414,0,0,-0.1178,-0.1212,-0.1219,-0.1233,-0.1261,-0.1282,-0.1309,-0.1338,-0.1352,-0.1375,-0.1399,-0.1436,-0.1433,-0.1451,-0.1458,-0.1477,-0.1505,-0.1471,-0.1472,-0.1477,-0.1548,-0.1551,-0.1556,-0.1507,-0.1508,-0.1508,-0.1546,0,-0.1213,-0.1262,-0.1271,-0.1313,-0.1338,-0.1341,-0.1365,-0.1385,-0.1397,-0.142,-0.1433,-0.146,-0.1454,-0.1464,-0.1482,-0.1498,-0.152,-0.1495,-0.153,-0.1531,-0.1524,-0.1563,-0.1566,-0.16,-0.1551,-0.1552,-0.1552,0,-0.1262,-0.1284,-0.1329,-0.1352,-0.1363,-0.1384,-0.1411,-0.1432,-0.1455,-0.1463,-0.1481,-0.1487,-0.1516,-0.1504,-0.1544,-0.1528,-0.1542,-0.1552,-0.1553,-0.1558,-0.1544,-0.1569,-0.1612,-0.1617,-0.156,-0.156,-0.1559,0,-0.1284,-0.1326,-0.1357,-0.1369,-0.1398,-0.1413,-0.1426,-0.1447,-0.1464,-0.1487,-0.1497,-0.1524,-0.1539,-0.156,-0.1572,-0.1562,-0.1612,-0.1601,-0.162,-0.162,-0.1631,-0.1631,-0.1678,-0.1639,-0.1639,-0.1639,-0.1639,0,-0.1324,-0.1351,-0.1368,-0.1388,-0.1418,-0.1428,-0.1459,-0.1471,-0.149,-0.1513,-0.1518,-0.1539,-0.1554,-0.1577,-0.1587,-0.162,-0.1626,-0.1634,-0.1636,-0.1634,-0.1633,-0.1644,-0.1642,-0.1641,-0.164,-0.164,-0.164,0,-0.1355,-0.1367,-0.1402,-0.1426,-0.1432,-0.1454,-0.1474,-0.1494,-0.1505,-0.1534,-0.1541,-0.1559,-0.1587,-0.1601,-0.1637,-0.1643,-0.168,-0.1681,-0.1672,-0.1673,-0.1691,-0.169,-0.1748,-0.1756,-0.1712,-0.1712,-0.1713,0,-0.1379,-0.14,-0.1426,-0.144,-0.1453,-0.1477,-0.1493,-0.1504,-0.1521,-0.1548,-0.1564,-0.1592,-0.1615,-0.1659,-0.1676,-0.1703,-0.1705,-0.1723,-0.1709,-0.1706,-0.1706,-0.1705,-0.1707,-0.1726,-0.1727,-0.1727,-0.1727,0,-0.1422,-0.1426,-0.1449,-0.1474,-0.1492,-0.1513,-0.1533,-0.1545,-0.1559,-0.1578,-0.1605,-0.1623,-0.1658,-0.1686,-0.1713,-0.1728,-0.173,-0.1731,-0.1737,-0.1736,-0.173,-0.1733,-0.1679,-0.173,-0.173,-0.173,-0.173,-0.173,-0.1451,-0.1469,-0.149,-0.1515,-0.153,-0.1549,-0.1568,-0.1581,-0.1604,-0.1633,-0.1638,-0.1667,-0.1689,-0.1727,-0.1741,-0.1765,-0.1761,-0.177,-0.1772,-0.1774,-0.1775,-0.1725,-0.177,-0.177,-0.177,-0.177,-0.177,0,-0.1494,-0.1507,-0.1529,-0.1556,-0.1576,-0.1575,-0.1597,-0.1614,-0.1639,-0.1659,-0.1681,-0.1713,-0.1739,-0.1758,-0.1785,-0.1801,-0.1802,-0.1807,-0.1807,-0.181,-0.1777,-0.1769,-0.1805,-0.1805,-0.1805,-0.1805,-0.1805,-0.1805,-0.1518,-0.1549,-0.1556,-0.1595,-0.1609,-0.1637,-0.1649,-0.1666,-0.1682,-0.1717,-0.1739,-0.175,-0.1769,-0.1798,-0.1822,-0.1827,-0.1837,-0.1842,-0.1847,-0.1816,-0.1812,-0.1809,-0.1802,-0.1844,-0.1844,-0.1878,-0.1879,-0.1879]}]]